Location: Lansingburgh
(42.7845°N, 73.6696°W)
Time: 23:52:56
(UTC+00:00)

BlueWalker 3 - Pass Details

Date: 23 December 2025
Orbit: 451 x 463 km, 53.2° (Epoch: 15 January)

Event Time Altitude Azimuth Distance (km) Brightness Sun altitude
Exits shadow 10:46:52 25° 231° (SW) 964 3.0 -16.9°
Maximum altitude 10:48:51 88° 147° (SSE) 459 1.6 -16.5°
Drops below altitude 10° 10:52:27 10° 54° (NE) 1,596 5.0 -15.9°
Sets 10:54:36 0° 54° (NE) 2,475 6.0 -15.5°
